EW8157 Weather Reports


Display with metric or nautical units.
time (UTC)temp
F
wind
direction
speed
MPH
gust
MPH
rain 1hr
in
rain 24hr
in
rain mn
in
humidity
%
barometer
mb
20260509223016 57 0.0 2.0 0.00 0.23 0.23 84 1006.5
20260509220038 56 0.0 2.0 0.00 0.23 0.23 86 1006.6
20260509213037 55 0.0 0.0 0.00 0.23 0.23 88 1006.7
20260509210018 55 0.0 0.0 0.00 0.23 0.23 89 1006.8
20260509203018 55 0.0 4.0 0.00 0.23 0.23 89 1007.0
20260509200038 55 0.0 3.0 0.00 0.23 0.23 90 1007.3
20260509193017 55 0.0 0.0 0.00 0.23 0.23 91 1007.8
20260509190017 54 0.0 0.0 0.01 0.23 0.23 91 1007.7
20260509183018 53 0.0 0.0 0.02 0.23 0.23 91 1008.4
20260509180037 53 0.0 0.0 0.04 0.22 0.22 91 1008.4
20260509173017 53 0.0 0.0 0.06 0.21 0.21 90 1008.3
20260509170017 53 0.0 0.0 0.11 0.18 0.18 90 1008.4
20260509163016 53 0.0 0.0 0.11 0.15 0.15 90 1008.8
20260509160016 53 0.0 0.0 0.05 0.07 0.07 90 1009.0
20260509153016 52 0.0 0.0 0.03 0.04 0.04 89 1009.0
20260509150036 52 0.0 0.0 0.01 0.02 0.02 89 1008.9
20260509143017 52 0.0 0.0 0.00 0.01 0.01 89 1008.8
20260509140016 51 0.0 3.0 0.01 0.01 0.01 88 1008.6
20260509133036 51 0.0 2.0 0.01 0.01 0.01 87 1008.5
20260509130016 51 0.0 3.0 0.00 0.00 0.00 86 1008.5
20260509123018 50 0.0 2.0 0.00 0.00 0.00 85 1008.1
20260509120018 50 0.0 0.0 0.00 0.00 0.00 85 1008.4
20260509113018 49 0.0 0.0 0.00 0.00 0.00 86 1008.4
20260509110017 49 0.0 0.0 0.00 0.00 0.00 86 1008.4
20260509103038 49 0.0 0.0 0.00 0.00 0.00 85 1007.9
20260509100017 48 0.0 0.0 0.00 0.00 0.00 84 1007.8
20260509093017 48 0.0 0.0 0.00 0.00 0.00 85 1007.9
20260509090017 48 0.0 0.0 0.00 0.00 0.00 89 1008.3
20260509083017 49 0.0 4.0 0.00 0.00 0.00 83 1008.4
20260509080017 49 0.0 0.0 0.00 0.00 0.00 82 1008.5
20260509073016 49 0.0 0.0 0.00 0.00 0.00 81 1008.9
20260509070016 50 0.0 0.0 0.00 0.00 0.00 82 1008.9
20260509063016 51 0.0 0.0 0.00 0.00 0.00 81 1008.9
20260509060016 51 0.0 0.0 0.00 0.00 0.00 80 1009.4
20260509053017 52 0.0 3.0 0.00 0.00 0.00 79 1009.3
20260509050016 52 0.0 0.0 0.00 0.00 0.00 75 1009.1
20260509043017 52 0.0 0.0 0.00 0.00 0.00 74 1010.0
20260509040036 52 0.0 3.0 0.00 0.00 0.00 75 1009.7
20260509033016 53 0.0 0.0 0.00 0.00 0.00 72 1009.5
20260509030017 53 0.0 0.0 0.00 0.00 0.00 74 1009.4
20260509023017 54 0.0 0.0 0.00 0.00 0.00 69 1009.3
20260509020017 54 0.0 0.0 0.00 0.00 0.00 66 1009.8
20260509013018 55 0.0 0.0 0.00 0.00 0.00 64 1009.5
20260509010017 56 0.0 0.0 0.00 0.00 0.00 63 1009.0
20260509003017 57 0.0 0.0 0.00 0.00 0.00 60 1008.7
20260509000017 57 0.0 4.0 0.00 0.00 0.00 59 1008.4
20260508233017 59 0.0 4.0 0.00 0.00 0.00 59 1008.3
20260508230017 60 0.0 0.0 0.00 0.00 0.00 51 1008.3